Weather History for Mosby, MO

Change the Weather History Date:

Thursday, November 14, 2013

  Actual Average (KMKC) Record (KMKC)
Temperature  
Mean Temperature 46 °F -  
Max Temperature 55 °F 53 °F 70 °F (2001)
Min Temperature 37 °F 36 °F 27 °F (2000)
Degree Days  
Heating Degree Days 19    
Moisture  
Dew Point 26 °F    
Average Humidity 48    
Maximum Humidity 61    
Minimum Humidity 31    
Precipitation  
Precipitation 0.00 in - - ()
Sea Level Pressure  
Sea Level Pressure 30.04 in    
Wind  
Wind Speed 8 mph (SSW)    
Max Wind Speed 15 mph    
Max Gust Speed 22 mph    
Visibility 10 miles    
Events      
Averages and records for this station are not official NWS values.
T = Trace of Precipitation, MM = Missing Value Source: NWS Daily Summary

Daily Weather History Graph

Daily Weather History Graph

Search for Another Location

Airport:

Trip Planner

Search our weather history database for the weather conditions in past years. The results will help you decide how hot, cold, wet, or windy it might be!

Date:

Astronomy

Nov. 14, 2013 Rise Set
Actual Time 7:00 AM CST 5:02 PM CST
Civil Twilight 6:31 AM CST 5:31 PM CST
Nautical Twilight 5:59 AM CST 6:03 PM CST
Astronomical Twilight 5:27 AM CST 6:35 PM CST
Moon 3:23 PM CST (11/14) 3:57 AM CST (11/14)
Length of Visible Light 11h 00m
Length of Day
10h 02m
Waxing Gibbous, 92% of the Moon is Illuminated
Nov 14
Waxing Gibbous
Nov 17
Full
Nov 25
Last Quarter
Dec 2
New
Dec 9
First Quarter

Hourly Weather History & Observations

Time (CST) Temp. Windchill Dew Point Humidity Pressure Visibility Wind Dir Wind Speed Gust Speed Precip Events Conditions
12:15 AM 39.2 °F 35.0 °F 23.0 °F 52% 30.19 in 10.0 mi South 5.8 mph - N/A   Clear
12:35 AM 41.0 °F 37.1 °F 23.0 °F 49% 30.18 in 10.0 mi South 5.8 mph - N/A   Clear
12:55 AM 41.0 °F 36.4 °F 23.0 °F 49% 30.18 in 10.0 mi South 6.9 mph - N/A   Clear
1:15 AM 41.0 °F 35.8 °F 23.0 °F 49% 30.17 in 10.0 mi South 8.1 mph - N/A   Clear
1:35 AM 39.2 °F 35.0 °F 23.0 °F 52% 30.16 in 10.0 mi South 5.8 mph - N/A   Clear
1:55 AM 39.2 °F 35.0 °F 23.0 °F 52% 30.15 in 10.0 mi South 5.8 mph - N/A   Unknown
2:15 AM 39.2 °F 34.2 °F 24.8 °F 56% 30.15 in 10.0 mi South 6.9 mph - N/A   Clear
2:35 AM 39.2 °F 33.6 °F 24.8 °F 56% 30.14 in 10.0 mi South 8.1 mph - N/A   Clear
2:55 AM 39.2 °F 34.2 °F 24.8 °F 56% 30.13 in 10.0 mi South 6.9 mph - N/A   Clear
3:15 AM 39.2 °F 35.0 °F 24.8 °F 56% 30.13 in 10.0 mi South 5.8 mph - N/A   Unknown
3:35 AM 39.2 °F 35.0 °F 24.8 °F 56% 30.12 in 10.0 mi South 5.8 mph - N/A   Clear
3:55 AM 39.2 °F 33.6 °F 24.8 °F 56% 30.11 in 10.0 mi South 8.1 mph - N/A   Clear
4:15 AM 39.2 °F 33.0 °F 24.8 °F 56% 30.11 in 10.0 mi South 9.2 mph - N/A   Clear
4:35 AM 39.2 °F 33.6 °F 24.8 °F 56% 30.11 in 10.0 mi South 8.1 mph - N/A   Clear
4:55 AM 37.4 °F 30.8 °F 24.8 °F 60% 30.10 in 10.0 mi South 9.2 mph - N/A   Clear
5:15 AM 37.4 °F 30.8 °F 24.8 °F 60% 30.10 in 10.0 mi SSW 9.2 mph - N/A   Unknown
5:35 AM 39.2 °F 33.0 °F 24.8 °F 56% 30.10 in 10.0 mi South 9.2 mph - N/A   Clear
5:55 AM 39.2 °F 32.0 °F 23.0 °F 52% 30.10 in 10.0 mi South 11.5 mph - N/A   Clear
6:15 AM 39.2 °F 33.0 °F 23.0 °F 52% 30.10 in 10.0 mi SSW 9.2 mph - N/A   Clear
6:35 AM 37.4 °F 31.4 °F 23.0 °F 56% 30.09 in 10.0 mi South 8.1 mph - N/A   Clear
6:55 AM 37.4 °F 30.8 °F 24.8 °F 60% 30.09 in 10.0 mi South 9.2 mph - N/A   Clear
7:15 AM 37.4 °F 30.3 °F 24.8 °F 60% 30.10 in 10.0 mi South 10.4 mph - N/A   Clear
7:35 AM 37.4 °F 30.8 °F 24.8 °F 60% 30.10 in 10.0 mi South 9.2 mph - N/A   Clear
7:55 AM 37.4 °F 30.8 °F 24.8 °F 60% 30.10 in 10.0 mi South 9.2 mph - N/A   Unknown
8:15 AM 39.2 °F 32.0 °F 26.6 °F 61% 30.09 in 10.0 mi SSW 11.5 mph - N/A   Clear
8:35 AM 41.0 °F 35.2 °F 24.8 °F 53% 30.09 in 10.0 mi South 9.2 mph 18.4 mph N/A   Clear
8:55 AM 41.0 °F 34.3 °F 24.8 °F 53% 30.08 in 10.0 mi South 11.5 mph - N/A   Clear
9:15 AM 42.8 °F 36.6 °F 24.8 °F 49% 30.08 in 10.0 mi South 11.5 mph 20.7 mph N/A   Clear
9:35 AM 42.8 °F 36.2 °F 26.6 °F 53% 30.07 in 10.0 mi SSW 12.7 mph - N/A   Clear
9:55 AM 44.6 °F 39.2 °F 24.8 °F 46% 30.07 in 10.0 mi SSW 10.4 mph 19.6 mph N/A   Clear
10:15 AM 44.6 °F 39.2 °F 24.8 °F 46% 30.08 in 10.0 mi SSW 10.4 mph - N/A   Clear
10:35 AM 46.4 °F 40.4 °F 26.6 °F 46% 30.07 in 10.0 mi South 13.8 mph 20.7 mph N/A   Clear
10:55 AM 46.4 °F 40.7 °F 24.8 °F 43% 30.06 in 10.0 mi SSW 12.7 mph 19.6 mph N/A   Clear
11:15 AM 48.2 °F - 24.8 °F 40% 30.06 in 10.0 mi SSW 12.7 mph 21.9 mph N/A   Clear
11:35 AM 48.2 °F - 26.6 °F 43% 30.06 in 10.0 mi SSW 12.7 mph 19.6 mph N/A   Clear
11:55 AM 48.2 °F - 24.8 °F 40% 30.05 in 10.0 mi SSW 12.7 mph 19.6 mph N/A   Clear
12:15 PM 50.0 °F - 26.6 °F 40% 30.05 in 10.0 mi SW 10.4 mph - N/A   Clear
12:35 PM 50.0 °F - 26.6 °F 40% 30.03 in 10.0 mi SSW 9.2 mph - N/A   Clear
12:55 PM 50.0 °F - 26.6 °F 40% 30.02 in 10.0 mi SSW 10.4 mph - N/A   Clear
1:15 PM 51.8 °F - 26.6 °F 38% 30.01 in 10.0 mi SSW 12.7 mph - N/A   Clear
1:35 PM 51.8 °F - 26.6 °F 38% 30.00 in 10.0 mi South 11.5 mph 16.1 mph N/A   Clear
1:55 PM 53.6 °F - 26.6 °F 35% 29.99 in 10.0 mi South 13.8 mph 17.3 mph N/A   Clear
2:15 PM 53.6 °F - 26.6 °F 35% 29.98 in 10.0 mi SSW 12.7 mph 16.1 mph N/A   Clear
2:35 PM 55.4 °F - 26.6 °F 33% 29.97 in 10.0 mi South 12.7 mph 19.6 mph N/A   Unknown
2:55 PM 55.4 °F - 26.6 °F 33% 29.97 in 10.0 mi SSW 13.8 mph 21.9 mph N/A   Clear
3:15 PM 55.4 °F - 26.6 °F 33% 29.96 in 10.0 mi South 15.0 mph 20.7 mph N/A   Clear
3:35 PM 55.4 °F - 24.8 °F 31% 29.96 in 10.0 mi SSW 10.4 mph - N/A   Clear
3:55 PM 55.4 °F - 24.8 °F 31% 29.97 in 10.0 mi SSW 11.5 mph - N/A   Clear
4:15 PM 55.4 °F - 24.8 °F 31% 29.97 in 10.0 mi SW 8.1 mph - N/A   Clear
4:35 PM 53.6 °F - 26.6 °F 35% 29.97 in 10.0 mi South 8.1 mph - N/A   Clear
4:55 PM 53.6 °F - 24.8 °F 33% 29.96 in 10.0 mi South 9.2 mph 17.3 mph N/A   Clear
5:15 PM 51.8 °F - 26.6 °F 38% 29.96 in 10.0 mi Calm Calm - N/A   Clear
5:35 PM 50.0 °F - 26.6 °F 40% 29.97 in 10.0 mi South 3.5 mph - N/A   Clear
5:55 PM 50.0 °F - 26.6 °F 40% 29.97 in 10.0 mi South 6.9 mph - N/A   Clear
6:15 PM 50.0 °F - 26.6 °F 40% 29.98 in 10.0 mi South 5.8 mph - N/A   Clear
6:35 PM 48.2 °F - 26.6 °F 43% 29.98 in 10.0 mi South 9.2 mph - N/A   Clear
6:55 PM 48.2 °F - 28.4 °F 46% 29.98 in 10.0 mi South 6.9 mph - N/A   Clear
7:15 PM 46.4 °F 42.9 °F 28.4 °F 50% 29.98 in 10.0 mi South 6.9 mph - N/A   Clear
7:35 PM 46.4 °F 43.5 °F 28.4 °F 50% 29.98 in 10.0 mi South 5.8 mph - N/A   Clear
7:55 PM 46.4 °F 44.3 °F 28.4 °F 50% 29.97 in 10.0 mi South 4.6 mph - N/A   Clear
8:15 PM 46.4 °F 44.3 °F 28.4 °F 50% 29.98 in 10.0 mi South 4.6 mph - N/A   Scattered Clouds
8:35 PM 44.6 °F 40.7 °F 30.2 °F 57% 29.98 in 10.0 mi South 6.9 mph - N/A   Mostly Cloudy
8:55 PM 46.4 °F 42.9 °F 30.2 °F 53% 29.98 in 10.0 mi South 6.9 mph - N/A   Unknown
9:15 PM 46.4 °F 41.9 °F 30.2 °F 53% 29.99 in 10.0 mi South 9.2 mph - N/A   Mostly Cloudy
9:35 PM 46.4 °F 41.9 °F 28.4 °F 50% 29.99 in 10.0 mi SSW 9.2 mph - N/A   Mostly Cloudy
9:55 PM 44.6 °F 39.2 °F 28.4 °F 53% 29.98 in 10.0 mi SSW 10.4 mph - N/A   Scattered Clouds
10:15 PM 46.4 °F 41.5 °F 28.4 °F 50% 29.99 in 10.0 mi SSW 10.4 mph - N/A   Scattered Clouds
10:35 PM 46.4 °F 42.4 °F 26.6 °F 46% 29.98 in 10.0 mi SSW 8.1 mph 16.1 mph N/A   Mostly Cloudy
10:55 PM 46.4 °F 41.5 °F 26.6 °F 46% 29.98 in 10.0 mi SSW 10.4 mph 16.1 mph N/A   Mostly Cloudy
11:15 PM 46.4 °F 41.9 °F 26.6 °F 46% 29.98 in 10.0 mi SSW 9.2 mph - N/A   Mostly Cloudy
11:35 PM 46.4 °F 42.4 °F 26.6 °F 46% 29.98 in 10.0 mi SSW 8.1 mph - N/A   Mostly Cloudy
11:55 PM 46.4 °F 42.9 °F 28.4 °F 50% 29.98 in 10.0 mi SSW 6.9 mph - N/A   Unknown